TimeEDT,TemperatureF,Dew PointF,Humidity,Sea Level PressureIn,VisibilityMPH,Wind Direction,Wind SpeedMPH,Gust SpeedMPH,PrecipitationIn,Events,Conditions,WindDirDegrees,DateUTC
12:15 AM,71.6,68.0,88,29.76,10.0,SSW,3.5,-,N/A,,Clear,200,2013-05-04 04:15:00
12:35 AM,69.8,68.0,94,29.75,10.0,SSW,3.5,-,N/A,,Clear,200,2013-05-04 04:35:00
12:55 AM,69.8,68.0,94,29.75,10.0,South,3.5,-,N/A,,Clear,190,2013-05-04 04:55:00
1:15 AM,69.8,66.2,88,29.74,10.0,Calm,Calm,-,N/A,,Clear,0,2013-05-04 05:15:00
1:35 AM,69.8,68.0,94,29.74,10.0,Calm,Calm,-,N/A,,Clear,0,2013-05-04 05:35:00
1:55 AM,69.8,68.0,94,29.74,10.0,Calm,Calm,-,N/A,,Clear,0,2013-05-04 05:55:00
2:15 AM,69.8,68.0,94,29.73,10.0,Calm,Calm,-,N/A,,Clear,0,2013-05-04 06:15:00
2:35 AM,68.0,66.2,94,29.72,10.0,Calm,Calm,-,N/A,,Clear,0,2013-05-04 06:35:00
2:55 AM,68.0,66.2,94,29.71,10.0,Calm,Calm,-,N/A,,Scattered Clouds,0,2013-05-04 06:55:00
3:15 AM,69.8,68.0,94,29.72,10.0,WSW,4.6,-,N/A,,Scattered Clouds,250,2013-05-04 07:15:00
3:35 AM,69.8,68.0,94,29.72,10.0,West,3.5,-,N/A,,Mostly Cloudy,270,2013-05-04 07:35:00
3:55 AM,69.8,68.0,94,29.72,10.0,Calm,Calm,-,N/A,,Overcast,0,2013-05-04 07:55:00
4:15 AM,69.8,68.0,94,29.72,10.0,West,4.6,-,N/A,,Overcast,270,2013-05-04 08:15:00
4:35 AM,69.8,68.0,94,29.72,10.0,West,3.5,-,N/A,Thunderstorm,Scattered Clouds,270,2013-05-04 08:35:00
4:55 AM,68.0,66.2,94,29.72,10.0,Calm,Calm,-,N/A,,Clear,0,2013-05-04 08:55:00
5:15 AM,68.0,66.2,94,29.72,10.0,Calm,Calm,-,N/A,,Clear,0,2013-05-04 09:15:00
5:35 AM,68.0,66.2,94,29.73,10.0,Calm,Calm,-,N/A,,Clear,0,2013-05-04 09:35:00
5:55 AM,68.0,64.4,88,29.72,10.0,Calm,Calm,-,N/A,,Clear,0,2013-05-04 09:55:00
6:15 AM,68.0,64.4,88,29.73,10.0,Calm,Calm,-,N/A,,Clear,0,2013-05-04 10:15:00
6:47 AM,66.2,66.2,100,29.69,7.0,Calm,Calm,-,N/A,,Partly Cloudy,0,2013-05-04 10:47:00
7:50 AM,69.8,68.0,94,29.76,7.0,Calm,Calm,-,N/A,,Mostly Cloudy,0,2013-05-04 11:50:00
8:13 AM,71.6,69.8,94,29.76,7.0,Calm,Calm,-,N/A,,Partly Cloudy,0,2013-05-04 12:13:00
8:47 AM,71.6,68.0,88,29.76,7.0,Calm,Calm,-,N/A,,Scattered Clouds,0,2013-05-04 12:47:00
8:55 AM,73.4,68.0,83,29.76,7.0,Calm,Calm,-,N/A,,Mostly Cloudy,0,2013-05-04 12:55:00
9:47 AM,73.4,68.0,83,29.77,7.0,West,10.4,-,N/A,,Overcast,270,2013-05-04 13:47:00
10:47 AM,75.2,68.0,78,29.79,7.0,West,15.0,-,N/A,,Mostly Cloudy,270,2013-05-04 14:47:00
11:47 AM,75.2,66.2,73,29.79,7.0,West,10.4,-,N/A,,Mostly Cloudy,280,2013-05-04 15:47:00
12:47 PM,86.0,77.0,74,29.76,7.0,West,13.8,-,N/A,,Mostly Cloudy,280,2013-05-04 16:47:00
2:47 PM,84.2,60.8,45,29.73,7.0,West,11.5,-,N/A,,Mostly Cloudy,260,2013-05-04 18:47:00
3:47 PM,84.2,62.6,48,29.71,7.0,WNW,9.2,-,N/A,,Mostly Cloudy,290,2013-05-04 19:47:00
4:47 PM,84.2,62.6,48,29.72,7.0,West,11.5,-,N/A,,Mostly Cloudy,270,2013-05-04 20:47:00
5:47 PM,82.4,66.2,58,29.72,7.0,WNW,6.9,-,N/A,,Mostly Cloudy,290,2013-05-04 21:47:00
8:15 PM,77.0,69.8,78,29.74,4.0,East,4.6,-,N/A,,Haze,80,2013-05-05 00:15:00
8:35 PM,77.0,69.8,78,29.75,10.0,East,4.6,-,N/A,,Scattered Clouds,90,2013-05-05 00:35:00
8:55 PM,77.0,69.8,78,29.76,10.0,East,4.6,-,N/A,,Scattered Clouds,100,2013-05-05 00:55:00
9:15 PM,75.2,69.8,83,29.77,10.0,Calm,Calm,-,N/A,,Scattered Clouds,0,2013-05-05 01:15:00
9:35 PM,77.0,69.8,78,29.77,10.0,Calm,Calm,-,N/A,,Mostly Cloudy,0,2013-05-05 01:35:00
9:55 PM,77.0,71.6,83,29.78,10.0,Calm,Calm,-,N/A,,Overcast,0,2013-05-05 01:55:00
10:15 PM,77.0,68.0,74,29.79,10.0,WSW,6.9,-,N/A,,Mostly Cloudy,240,2013-05-05 02:15:00
10:35 PM,77.0,68.0,74,29.79,10.0,WNW,8.1,11.5,N/A,,Overcast,290,2013-05-05 02:35:00
10:55 PM,75.2,66.2,73,29.80,10.0,West,9.2,12.7,N/A,,Overcast,280,2013-05-05 02:55:00
11:15 PM,73.4,66.2,78,29.81,10.0,West,11.5,-,N/A,,Scattered Clouds,280,2013-05-05 03:15:00
11:35 PM,73.4,66.2,78,29.81,10.0,WNW,9.2,-,N/A,,Clear,290,2013-05-05 03:35:00
11:55 PM,73.4,66.2,78,29.82,10.0,WNW,6.9,-,N/A,,Clear,290,2013-05-05 03:55:00